Regional Weather Roundup
Issued by NWS

Home | Current Version | Previous Version | Text Only | Print | Product List | Glossary Off
Versions: 1 2 3 4 5 6 7 8 9 10 11 12 13 14 15 16 17 18 19 20 21 22 23 24 25 26 27

000
ASUS45 KTFX 230310
RWRMT
MONTANA REGIONAL WEATHER ROUNDUP
NATIONAL WEATHER SERVICE GREAT FALLS MT
900 PM MDT MON MAY 22 2017

NOTE: "FAIR" INDICATES FEW OR NO CLOUDS BELOW 12000 FEET WITH NO
SIGNIFICANT WEATHER AND/OR OBSTRUCTIONS TO VISIBILITY.

MTZ001>007-043-230400-
WEST OF THE DIVIDE

CITY           SKY/WX    TMP DP  RH WIND       PRES   REMARKS
KALISPELL      CLEAR     66  47  50 S6        30.10F
MISSOULA       CLEAR     67  40  37 W3        30.14S
BUTTE          CLOUDY    59  34  39 SE12G22   30.27S
MULLAN PASS    CLEAR     58  32  37 VRB5      30.26F
ANACONDA         N/A     61  39  44 SW3       30.23S
DEER LODGE       N/A     61  39  44 N3        30.24S
EUREKA           N/A     75  46  35 CALM      30.07F
HAMILTON         N/A     68  45  42 W3        30.16S
LIBBY            N/A     73  41  31 CALM      30.08S
PLAINS           N/A     74  46  36 CALM      30.10S
RONAN            N/A     72  46  39 CALM      30.17S
$$

MTZ008-052>055-230400-
SOUTHWEST MONTANA

CITY           SKY/WX    TMP DP  RH WIND       PRES   REMARKS
BOZEMAN        CLOUDY    60  43  53 SW3       30.23F
DILLON         CLEAR     58  38  47 NE9       30.23R
W YELLOWSTONE  CLOUDY    52  34  50 NE12      30.31S
ENNIS          MOCLDY    55  36  47 N7        30.30S
THREE FORKS      N/A     63  41  44 CALM      30.20S
TWIN BRIDGES     N/A     61  38  42 CALM      30.19S
$$

MTZ009-010-012-014-046-048-049-054-230400-
EAST SLOPES AND CENTRAL MONTANA

CITY           SKY/WX    TMP DP  RH WIND       PRES   REMARKS
CUT BANK       CLEAR     60  39  45 E8        30.18S
GREAT FALLS    PTCLDY    61  41  47 CALM      30.19S
HELENA         CLOUDY    66  42  41 NE3       30.20F
AUGUSTA          N/A     60  43  54 SW5       30.21S
BOWMANS CRNR     N/A     60  41  48 W3        30.20S
CHOTEAU          N/A     63  43  48 E7        30.21S
CONRAD           N/A     66  45  46 NE7       30.20S
FAIRFIELD        N/A     64  38  38 CALM      30.19S
POWER            N/A     56  39  52 E8        30.19S
RAYNESFORD       N/A     55  42  62 NE5       30.21S
ULM            MOCLDY    58  49  72 S5        30.19S
$$

MTZ011-013-016-021-045-047-050-051-230400-
NORTH CENTRAL MONTANA

CITY           SKY/WX    TMP DP  RH WIND       PRES   REMARKS
HAVRE          CLEAR     60  36  40 E8        30.17R
LEWISTOWN      CLEAR     57  36  45 NE3       30.21S
N BAR RANCH      N/A     54  32  43 NE8       30.25S
CHINOOK          N/A     64  32  29 NE3       30.17S
DENTON           N/A     58  40  51 E8        30.16S
GEYSER           N/A     58  35  42 N7        30.20S
JUDITH GAP       N/A     51  38  63 W10       30.22S
STANFORD         N/A     54  37  51 N7        30.22S
WINIFRED         N/A     54  37  52 E8        30.19S
$$

MTZ017>020-022>027-061-062-230400-
NORTHEAST MONTANA

CITY           SKY/WX    TMP DP  RH WIND       PRES   REMARKS
GLASGOW        CLEAR     55  33  43 NE9       30.16R
JORDAN           N/A     54  35  48 N5        30.17R
SIDNEY         CLOUDY    59  34  39 NW10      30.11R
WOLF POINT     CLOUDY    61  33  35 N8        30.15R
MALTA          CLEAR     57  36  44 E7        30.17R
PLENTYWOOD       N/A     57  34  41 N6        30.13R
POPLAR           N/A     61  32  33 N6        30.14R
SCOBEY           N/A     57  34  42 MISG      30.14R
$$

MTZ028>42-056>058-230400-
SOUTHCENTRAL AND SOUTHEAST MONTANA

CITY           SKY/WX    TMP DP  RH WIND       PRES   REMARKS
BAKER          MOCLDY    53  39  59 NW5       30.13R
BILLINGS       PTCLDY    59  36  42 NE3       30.20R
LIVINGSTON     CLEAR     51  39  63 SW6       30.23S
MILES CITY     PTCLDY    55  40  56 W3        30.15R
BIG TIMBER     CLEAR     55  37  50 CALM      30.26S
EKALAKA          N/A     47  39  73 W7        30.12R
FORSYTH          N/A     54  41  62 CALM      30.17R
LAUREL           N/A     55  34  45 CALM      30.18F
ROUNDUP          N/A     58  33  38 N6        30.10S
$$

REGIONAL REPORTS...DAKOTAS

CITY           SKY/WX    TMP DP  RH WIND       PRES   REMARKS
WILLISTON      CLOUDY    61  35  37 N7        30.10R
MINOT          CLOUDY    55  37  50 N15       30.07R
DICKINSON      CLOUDY    55  34  45 NW8       30.06R
BEACH          CLOUDY    52  39  62 N6        30.15R
TIOGA            N/A     52  32  46 NE9       30.11R
WATFORD CITY   MOCLDY    55  37  50 N5        30.09R
BISMARCK       CLOUDY    58  37  45 N22G30    30.01R
GRAND FORKS    CLOUDY    50  47  89 N13       29.91R
FARGO          CLOUDY    49  46  90 NW12      29.89R
BUFFALO SD       N/A     50  40  68 NW12      30.05R
RAPID CITY     CLOUDY    47  41  80 NW9       30.12R
$$

REGIONAL REPORTS...WYOMING/IDAHO/WASHINGTON

CITY           SKY/WX    TMP DP  RH WIND       PRES   REMARKS
GILLETTE       CLOUDY    44  42  93 N6        30.20R
SHERIDAN       PTCLDY    46  39  76 W10       30.21R
BUFFALO WY     PTCLDY    50  37  61 NW12      30.23R
CODY           CLOUDY    55  31  39 NW9G23    30.26R
YELLOWSTONE LA   N/A     42  32  67 NW5       30.38R
IDAHO FALLS    PTCLDY    66  38  35 E6        30.20R
SALMON         CLEAR     64  39  39 N6        30.13R
BOISE          CLEAR     76  35  22 NW10      30.09R
SPOKANE        PTCLDY    77  41  27 SW6       30.09F
$$

REGIONAL REPORTS...ALBERTA

CITY           SKY/WX    TMP DP  RH WIND       PRES   REMARKS
EDMONTON       CLEAR     68  43  40 CALM      30.00F
CALGARY        PTCLDY    70  36  28 S12       30.08F
LETHBRIDGE     PTCLDY    61  43  51 SE7       30.12F
MEDICINE HAT   PTCLDY    63  36  36 E5        30.14F
WATERTON GATE    N/A     63  37  39 SE2         N/A
CARDSTON         N/A     63  43  48 SE6         N/A
MILK RIVER       N/A     61  39  44 SE10        N/A
ONEFOUR          N/A     55  32  41 NE8         N/A
$$

REGIONAL REPORTS...SASKATCHEWAN

CITY           SKY/WX    TMP DP  RH WIND       PRES   REMARKS
SWIFT CURRENT  CLEAR     57  32  38 E6        30.17S
REGINA         PTCLDY    59  28  31 N8        30.14R
SASKATOON      MOCLDY    59  36  41 VRB2      30.14S
VAL MARIE        N/A     48  32  53 E3          N/A
ROCKGLEN         N/A     52  32  46 N3          N/A
ASSINIBOIA       N/A     70  43  37 S7          N/A
$$




USA.gov is the U.S. government's official web portal to all federal, state and local government web resources and services.